Погода в Мировке

Украина / Киевская область     49°55′53″N   30°37′18″E
темп.,
°C
ветер,
м/с
пор.,
м/с
влажн.,
%
обл.,
%
осадки,
мм/ч
давл.,
гПа
погр.,
м
9 мая, вс
вс900:00+3сз512914 0.0 1018446
03:00+2зсз412860 0.0 1020287
06:00+1зсз410950 0.0 1021207
09:00+7сз58700 0.0 1023695
12:00+11сз685482 0.1 10232051
15:00+11сз5753100 0.1 10241663
18:00+11сз455921 0.0 10251131
21:00+7з22704 0.0 102610
10 мая, пн
пн1000:00+5зюз11714 0.0 102710
03:00+4юз11740 0.0 102810
06:00+4ю11760 0.0 102810
09:00+11юв11605 0.0 1028368
12:00+15в11480 0.0 10281491
15:00+16св22451 0.0 10261671
18:00+15всв33510 0.0 10251267
21:00+9всв33670 0.0 102632
11 мая, вт
вт1100:00+7св22710 0.0 102514
03:00+6ссв34770 0.0 102545
06:00+5с48795 0.0 1024146
09:00+9с41068100 0.0 1023334
12:00+13ссв686475 0.0 1021629
15:00+18ссв586525 0.0 10191073
18:00+16св6117953 0.1 1018682
21:00+12всв49917 0.6 1018439
12 мая, ср
ср1200:00+8всв33931 0.1 101950
03:00+6св4119610 0.1 1017301
06:00+7всв51090100 0.0 1017527
09:00+9всв788088 0.2 10161021
12:00+10всв577397 0.2 10151109
15:00+12всв456989 0.8 10141274
18:00+10всв348472 0.9 1013419
21:00+8в118568 1.0 101213
13 мая, чт
чт1300:00+8ююв238748 0.1 101265
03:00+5ююв35925 0.1 101273
06:00+5юв379493 0.0 1012133
09:00+8юв51081100 0.0 1012337
12:00+16ююв71067100 0.1 10111450
15:00+15ююв4778100 1.4 1011660
18:00+15вюв228696 1.1 101063
21:00+12ссз359595 1.6 1009118